AA0RD-13 Weather Reports


time (UTC)temp
C
wind
direction
speed
KPH
gust
KPH
rain 1hr
cm
rain 24hr
cm
rain mn
cm
humidity
%
barometer
mb
20260505094332 10 232 27.4 33.8 0.00 0.00 0.00 97 1012.6
20260505093843 10 240 24.1 33.8 0.00 0.00 0.00 97 1012.6
20260505093332 10 238 25.7 37.0 0.00 0.00 0.00 97 1012.5
20260505092823 10 236 27.4 37.0 0.00 0.00 0.00 97 1012.6
20260505092315 10 240 27.4 37.0 0.00 0.00 0.00 97 1012.4
20260505091826 10 225 27.4 37.0 0.00 0.00 0.00 97 1012.4
20260505091318 10 240 27.4 37.0 0.00 0.00 0.00 97 1012.4
20260505090850 10 232 30.6 37.0 0.00 0.00 0.00 97 1012.4
20260505090324 10 248 27.4 33.8 0.00 0.00 0.00 97 1012.3
20260505085818 10 238 25.7 37.0 0.00 0.00 0.00 97 1012.3
20260505085329 10 228 30.6 37.0 0.00 0.00 0.00 98 1012.3
20260505084821 10 253 25.7 37.0 0.00 0.00 0.00 97 1012.3
20260505084333 10 240 27.4 40.2 0.00 0.00 0.00 97 1012.3
20260505083824 10 235 25.7 40.2 0.00 0.00 0.00 97 1012.3
20260505083316 10 234 27.4 37.0 0.00 0.00 0.00 98 1012.3
20260505082827 10 236 29.0 37.0 0.00 0.00 0.00 98 1012.1
20260505082323 10 238 29.0 37.0 0.00 0.00 0.00 97 1012.1
20260505081815 10 242 32.2 37.0 0.00 0.00 0.00 98 1012.0
20260505081327 10 243 30.6 35.4 0.00 0.00 0.00 98 1012.1
20260505080818 10 239 29.0 33.8 0.00 0.00 0.00 98 1012.1
20260505080328 10 234 29.0 33.8 0.00 0.00 0.00 98 1011.9
20260505075840 10 238 27.4 33.8 0.00 0.00 0.00 98 1012.0
20260505075330 10 223 25.7 33.8 0.00 0.00 0.00 98 1011.8
20260505074822 10 238 27.4 35.4 0.00 0.00 0.00 98 1011.8
20260505074354 10 229 27.4 35.4 0.00 0.00 0.00 97 1011.8
20260505073824 10 227 29.0 38.6 0.00 0.00 0.00 97 1011.6
20260505073318 10 237 29.0 38.6 0.00 0.00 0.00 98 1011.6
20260505072849 10 240 29.0 37.0 0.00 0.00 0.00 97 1011.5
20260505072320 10 238 25.7 38.6 0.00 0.00 0.00 97 1011.6
20260505071832 10 230 30.6 38.6 0.00 0.00 0.00 98 1011.5
20260505071322 10 238 30.6 40.2 0.00 0.00 0.00 98 1011.5
20260505070814 10 232 32.2 40.2 0.00 0.00 0.00 98 1011.3
20260505070325 10 228 32.2 40.2 0.00 0.00 0.00 98 1011.3
20260505065817 10 233 32.2 40.2 0.00 0.00 0.00 98 1011.4
20260505065349 10 252 32.2 38.6 0.00 0.00 0.00 98 1011.3
20260505064820 10 250 32.2 41.8 0.00 0.00 0.00 97 1011.3
20260505064316 10 239 32.2 40.2 0.00 0.00 0.00 97 1011.3
20260505063848 10 241 35.4 40.2 0.00 0.00 0.00 97 1011.3
20260505063320 10 232 32.2 38.6 0.00 0.00 0.00 97 1011.1
20260505062832 10 225 30.6 40.2 0.00 0.00 0.00 97 1011.2
20260505062322 10 225 32.2 40.2 0.00 0.00 0.00 97 1011.1
20260505061814 10 222 30.6 45.1 0.00 0.00 0.00 97 1011.0
20260505061346 10 223 33.8 40.2 0.00 0.00 0.00 97 1010.9
20260505060816 10 232 32.2 41.8 0.00 0.00 0.00 97 1010.8
20260505060330 10 227 30.6 40.2 0.00 0.00 0.00 97 1010.8
20260505055821 10 226 33.8 43.5 0.00 0.00 0.00 97 1010.6
20260505055337 10 225 33.8 43.5 0.00 0.00 0.00 97 1010.6
20260505054827 10 218 38.6 45.1 0.00 0.00 0.00 97 1010.5
20260505054317 10 220 33.8 43.5 0.00 0.00 0.00 97 1010.6
20260505053829 10 244 35.4 45.1 0.00 0.00 0.00 97 1010.5
20260505053341 10 235 38.6 48.3 0.00 0.00 0.00 97 1010.4
20260505052831 10 227 37.0 48.3 0.00 0.00 0.00 97 1010.3
20260505052323 10 238 37.0 48.3 0.00 0.00 0.00 96 1010.3
20260505051814 10 244 40.2 51.5 0.00 0.00 0.00 96 1010.2
20260505051324 11 236 41.8 51.5 0.00 0.00 0.00 96 1010.1
20260505050835 11 252 38.6 51.5 0.00 0.00 0.00 96 1010.0
20260505050326 11 244 38.6 51.5 0.00 0.00 0.00 96 1009.9
20260505041331 11 252 41.8 53.1 0.00 0.00 0.00 95 1009.5
20260505040822 11 237 38.6 49.9 0.00 0.00 0.00 94 1009.6
20260505040314 11 242 38.6 49.9 0.00 0.00 0.00 94 1009.6
20260505035826 11 255 40.2 51.5 0.00 0.00 0.00 94 1009.5
20260505035319 11 233 43.5 53.1 0.00 0.00 0.00 94 1009.6
20260505034830 11 240 40.2 54.7 0.00 0.00 0.00 94 1009.5
20260505034322 11 242 43.5 54.7 0.00 0.00 0.00 94 1009.5
20260505033853 11 238 41.8 51.5 0.00 0.00 0.00 93 1009.5
20260505033324 11 254 41.8 53.1 0.00 0.00 0.00 93 1009.5
20260505032819 11 248 43.5 53.1 0.00 0.00 0.00 92 1009.5
20260505032330 11 252 43.5 53.1 0.00 0.00 0.00 92 1009.4
20260505031822 11 252 40.2 51.5 0.00 0.00 0.00 91 1009.2
20260505031333 11 248 40.2 51.5 0.00 0.00 0.00 91 1009.1
20260505030845 12 243 41.8 53.1 0.00 0.00 0.00 91 1009.1
20260505030337 12 239 43.5 53.1 0.00 0.00 0.00 91 1009.1
20260505025847 12 249 43.5 53.1 0.00 0.00 0.00 91 1009.1
20260505025319 12 249 41.8 51.5 0.00 0.00 0.00 90 1009.0
20260505024850 12 239 41.8 51.5 0.00 0.00 0.00 89 1009.0
20260505024321 12 252 43.5 51.5 0.00 0.00 0.00 89 1008.9
20260505023831 12 240 41.8 53.1 0.00 0.00 0.00 89 1009.0
20260505023321 12 254 43.5 53.1 0.00 0.00 0.00 89 1009.1
20260505022818 12 255 40.2 48.3 0.00 0.00 0.00 89 1009.1
20260505022329 12 236 40.2 46.7 0.00 0.00 0.00 89 1009.1
20260505021820 12 244 37.0 43.5 0.00 0.00 0.00 89 1009.2
20260505021332 12 248 35.4 45.1 0.00 0.00 0.00 89 1009.2
20260505020823 12 242 33.8 45.1 0.00 0.00 0.00 88 1009.4
20260505020314 12 237 35.4 41.8 0.00 0.00 0.00 88 1009.4
20260505015826 12 239 33.8 40.2 0.00 0.00 0.00 88 1009.5
20260505015318 12 235 32.2 41.8 0.00 0.00 0.00 88 1009.5
20260505014828 12 230 33.8 41.8 0.00 0.00 0.00 88 1009.5
20260505014323 12 234 32.2 41.8 0.00 0.00 0.00 87 1009.5
20260505013815 12 238 35.4 43.5 0.00 0.00 0.00 87 1009.5
20260505013328 13 227 33.8 41.8 0.00 0.00 0.00 87 1009.8
20260505012820 13 226 33.8 41.8 0.00 0.00 0.00 86 1009.7
20260505012351 13 229 30.6 41.8 0.00 0.00 0.00 86 1009.9
20260505011822 13 221 32.2 40.2 0.00 0.00 0.00 85 1009.7
20260505011333 13 230 30.6 38.6 0.00 0.00 0.00 85 1009.9
20260505010825 13 233 30.6 37.0 0.00 0.00 0.00 85 1009.9
20260505010317 13 246 27.4 38.6 0.00 0.00 0.00 85 1009.9
20260505005832 13 239 30.6 38.6 0.00 0.00 0.00 85 1010.0
20260505005324 13 223 30.6 38.6 0.00 0.00 0.00 85 1009.9
20260505004814 13 221 32.2 37.0 0.00 0.00 0.00 85 1009.9
20260505004327 13 237 29.0 37.0 0.00 0.00 0.00 86 1009.9
20260505003818 13 241 30.6 37.0 0.00 0.00 0.00 86 1009.9
20260505003350 13 228 29.0 37.0 0.00 0.00 0.00 86 1009.8
20260505002818 13 236 30.6 37.0 0.00 0.00 0.00 85 1009.9
20260505002330 13 238 29.0 35.4 0.00 0.00 0.00 86 1009.7
20260505001842 13 236 29.0 35.4 0.00 0.00 0.00 87 1009.8
20260505001332 13 247 27.4 35.4 0.00 0.00 0.00 87 1009.8
20260505000843 13 242 27.4 35.4 0.00 0.00 0.00 87 1009.7
20260505000318 13 239 25.7 32.2 0.00 0.00 0.00 87 1009.7
20260504235830 13 261 25.7 32.2 0.00 0.00 0.00 87 1009.7
20260504235322 13 246 25.7 30.6 0.00 0.00 0.00 87 1009.8
20260504234832 13 252 24.1 30.6 0.00 0.00 0.00 87 1009.9
20260504234325 13 246 20.9 27.4 0.00 0.00 0.00 87 1009.9
20260504233816 13 254 20.9 29.0 0.00 0.00 0.00 87 1009.9
20260504233328 13 246 20.9 30.6 0.00 0.00 0.00 87 1009.9
20260504232819 13 246 24.1 30.6 0.00 0.00 0.00 87 1009.9
20260504232315 13 238 24.1 32.2 0.00 0.00 0.00 87 1009.9
20260504231827 13 245 27.4 32.2 0.00 0.00 0.00 87 1009.9
20260504231339 13 246 25.7 32.2 0.00 0.00 0.00 88 1009.9
20260504230850 13 238 25.7 30.6 0.00 0.00 0.00 88 1009.8
20260504230320 13 246 22.5 27.4 0.00 0.00 0.00 88 1010.0
20260504225853 13 232 24.1 27.4 0.00 0.00 0.00 88 1010.0
20260504225323 13 241 22.5 27.4 0.00 0.00 0.00 88 1010.3
20260504224815 13 246 24.1 30.6 0.00 0.00 0.00 88 1010.2
20260504224327 13 240 22.5 30.6 0.00 0.00 0.00 87 1010.4
20260504223818 13 234 22.5 27.4 0.00 0.00 0.00 87 1010.4
20260504223329 13 254 22.5 27.4 0.00 0.00 0.00 87 1010.4
20260504222825 13 231 19.3 22.5 0.00 0.00 0.00 87 1010.5
20260504222316 13 242 17.7 24.1 0.00 0.00 0.00 88 1010.4
20260504221850 13 239 19.3 24.1 0.00 0.00 0.00 88 1010.5
20260504221320 13 240 17.7 22.5 0.00 0.00 0.00 89 1010.6
20260504220832 13 231 19.3 25.7 0.00 0.00 0.00 88 1010.5
20260504220324 13 236 20.9 27.4 0.00 0.00 0.00 88 1010.6
20260504215815 13 240 22.5 29.0 0.00 0.00 0.00 88 1010.5
20260504215328 13 254 25.7 29.0 0.00 0.00 0.00 89 1010.6
20260504214818 13 235 22.5 25.7 0.00 0.00 0.00 87 1010.6
20260504214350 13 252 19.3 24.1 0.00 0.00 0.00 87 1010.6
20260504213845 13 238 19.3 25.7 0.00 0.00 0.00 88 1010.6
20260504213315 13 248 20.9 25.7 0.00 0.00 0.00 89 1010.7
20260504212826 13 247 19.3 25.7 0.00 0.00 0.00 89 1010.7
20260504212337 13 237 17.7 22.5 0.00 0.00 0.00 89 1010.8
20260504211827 13 253 17.7 20.9 0.00 0.00 0.00 90 1010.9
20260504211318 13 238 16.1 19.3 0.00 0.00 0.00 89 1010.8
20260504210830 13 247 16.1 19.3 0.00 0.00 0.00 90 1010.8
20260504210322 12 244 17.7 19.3 0.00 0.00 0.00 90 1010.7
20260504205833 12 257 16.1 19.3 0.00 0.00 0.00 90 1010.8
20260504205323 12 255 17.7 19.3 0.00 0.00 0.00 90 1010.8
20260504204817 12 263 14.5 20.9 0.00 0.00 0.00 90 1010.8
20260504204329 12 255 17.7 20.9 0.00 0.00 0.00 88 1010.8
20260504203819 13 233 17.7 20.9 0.00 0.00 0.00 87 1010.8
20260504203331 13 246 17.7 22.5 0.00 0.00 0.00 86 1010.9
20260504202822 13 248 17.7 22.5 0.00 0.00 0.00 86 1010.9
20260504202333 13 242 19.3 22.5 0.00 0.00 0.00 86 1010.8
20260504201826 13 246 17.7 22.5 0.00 0.00 0.00 85 1010.8
20260504201317 13 252 19.3 22.5 0.00 0.00 0.00 86 1010.8
20260504200830 13 234 14.5 20.9 0.00 0.00 0.00 86 1010.7
20260504200326 13 254 14.5 17.7 0.00 0.00 0.00 86 1010.9
20260504195817 13 267 14.5 17.7 0.00 0.00 0.00 85 1010.9
20260504195348 13 249 11.3 14.5 0.00 0.00 0.00 85 1011.0
20260504194818 13 246 9.7 14.5 0.00 0.00 0.00 84 1010.8
20260504194330 13 269 11.3 14.5 0.00 0.00 0.00 83 1010.8
20260504193841 13 264 11.3 14.5 0.00 0.00 0.00 82 1010.9
20260504193333 13 269 12.9 17.7 0.00 0.00 0.00 81 1010.8
20260504192824 14 267 14.5 19.3 0.00 0.00 0.00 80 1010.8
20260504192317 15 271 14.5 17.7 0.00 0.00 0.00 75 1010.8
20260504191828 15 28 4.8 6.4 0.00 0.00 0.00 74 1010.8
20260504191322 15 28 4.8 6.4 0.00 0.00 0.00 74 1010.9
20260504190833 16 28 4.8 6.4 0.00 0.00 0.00 72 1010.8
20260504190325 16 24 4.8 6.4 0.00 0.00 0.00 71 1010.7
20260504185817 17 22 4.8 6.4 0.00 0.00 0.00 69 1010.7
20260504185329 17 22 3.2 4.8 0.00 0.00 0.00 67 1010.7
20260504184820 18 11 3.2 4.8 0.00 0.00 0.00 66 1010.6
20260504184332 18 285 1.6 4.8 0.00 0.00 0.00 67 1010.5
20260504183844 17 285 1.6 4.8 0.00 0.00 0.00 69 1010.6
20260504183314 17 285 3.2 6.4 0.00 0.00 0.00 68 1010.6
20260504182829 17 134 0.0 0.0 0.00 0.00 0.00 68 1010.6
20260504182320 17 134 0.0 0.0 0.00 0.00 0.00 69 1010.7
20260504181831 17 134 0.0 0.0 0.00 0.00 0.00 70 1010.8
20260504181323 16 134 0.0 0.0 0.00 0.00 0.00 70 1010.8
20260504180835 16 134 0.0 3.2 0.00 0.00 0.00 71 1010.8
20260504180326 16 134 0.0 4.8 0.00 0.00 0.00 73 1010.8
20260504175817 16 134 1.6 4.8 0.00 0.00 0.00 74 1010.9
20260504175329 16 134 0.0 0.0 0.00 0.00 0.00 73 1010.9
20260504174820 16 134 0.0 0.0 0.00 0.00 0.00 76 1010.8
20260504174336 16 134 0.0 0.0 0.00 0.00 0.00 76 1010.8
20260504173826 16 134 0.0 0.0 0.00 0.00 0.00 78 1010.8
20260504173319 15 134 0.0 0.0 0.00 0.00 0.00 80 1010.9
20260504172830 15 134 0.0 0.0 0.00 0.00 0.00 82 1010.9
20260504172322 15 134 0.0 3.2 0.00 0.00 0.00 83 1010.9
20260504171832 14 134 0.0 6.4 0.00 0.00 0.00 84 1010.9
20260504171324 13 134 3.2 8.0 0.00 0.00 0.00 84 1010.9
20260504170815 13 127 6.4 8.0 0.00 0.00 0.00 83 1010.9
20260504170328 13 133 6.4 8.0 0.00 0.00 0.00 83 1010.9
20260504160328 12 5 4.8 8.0 0.00 0.00 0.00 83 1010.8
20260504150833 17 294 6.4 8.0 0.00 0.00 0.00 64 1010.3
20260504150325 17 283 4.8 8.0 0.00 0.00 0.00 64 1010.3
20260504140832 13 250 11.3 14.5 0.00 0.00 0.00 76 1009.8
20260504140324 13 251 8.0 12.9 0.00 0.00 0.00 75 1009.7
20260504130323 12 200 6.4 9.7 0.00 0.00 0.00 83 1009.5
20260504110327 11 158 4.8 9.7 0.00 0.00 0.00 92 1009.4
20260504100323 12 183 4.8 8.0 0.00 0.00 0.00 86 1009.4